Weather History for KTKC - October, 2011

Change the Weather History Date:

Wednesday, October 5, 2011

  Actual Average (KMML) Record (KMML)
Temperature  
Mean Temperature 73 °F -  
Max Temperature 85 °F 65 °F 86 °F (2011)
Min Temperature 61 °F 40 °F 23 °F (1952)
Cooling Degree Days 8    
Growing Degree Days 23 (Base 50)    
Moisture  
Dew Point 42 °F    
Average Humidity 37    
Maximum Humidity 55    
Minimum Humidity 19    
Precipitation  
Precipitation 0.00 in - - ()
Sea Level Pressure  
Sea Level Pressure 29.99 in    
Wind  
Wind Speed 14 mph (South)    
Max Wind Speed 20 mph    
Max Gust Speed 29 mph    
Visibility 10 miles    
Events      
Averages and records for this station are not official NWS values.
T = Trace of Precipitation, MM = Missing Value Source: NWS Daily Summary

Daily Weather History Graph

Daily Weather History Graph

Search for Another Location

Airport or City:

Trip Planner

Search our weather history database for the weather conditions in past years. The results will help you decide how hot, cold, wet, or windy it might be!

Date:

Astronomy

Oct. 05, 2011 Rise Set
Actual Time 7:24 AM CDT 6:56 PM CDT
Civil Twilight 6:55 AM CDT 7:25 PM CDT
Nautical Twilight 6:22 AM CDT 7:58 PM CDT
Astronomical Twilight 5:48 AM CDT 8:32 PM CDT
Moon 3:48 PM CDT (10/5) 12:59 AM CDT (10/5)
Length of Visible Light 12h 29m
Length of Day
11h 31m
Waxing Gibbous, 66% of the Moon is Illuminated
Oct 5
Waxing Gibbous
Oct 11
Full
Oct 19
Last Quarter
Oct 26
New
Nov 2
First Quarter

Hourly Weather History & Observations

Time (CDT) Temp. Dew Point Humidity Pressure Visibility Wind Dir Wind Speed Gust Speed Precip Events Conditions
12:14 AM 67.5 °F 46.4 °F 47% 29.99 in 10.0 mi South 12.7 mph 18.4 mph N/A   Clear
12:33 AM 66.2 °F 46.6 °F 49% 29.99 in 10.0 mi South 13.8 mph 19.6 mph N/A   Clear
12:54 AM 65.7 °F 46.8 °F 50% 29.99 in 10.0 mi South 12.7 mph 17.3 mph N/A   Clear
1:14 AM 65.3 °F 46.8 °F 51% 29.99 in 10.0 mi South 15.0 mph 19.6 mph N/A   Clear
1:33 AM 64.9 °F 46.8 °F 52% 29.99 in 10.0 mi South 13.8 mph 18.4 mph N/A   Clear
1:54 AM 65.5 °F 46.6 °F 50% 29.99 in 10.0 mi SSW 13.8 mph 19.6 mph N/A   Clear
2:34 AM 65.3 °F 46.6 °F 51% 30.00 in 10.0 mi SSW 13.8 mph 19.6 mph N/A   Clear
2:54 AM 64.9 °F 46.8 °F 52% 30.00 in 10.0 mi SSW 11.5 mph - N/A   Clear
3:13 AM 65.3 °F 46.6 °F 51% 30.00 in 10.0 mi SSW 15.0 mph 20.7 mph N/A   Clear
3:33 AM 65.3 °F 46.6 °F 51% 30.00 in 10.0 mi South 12.7 mph 19.6 mph N/A   Clear
3:54 AM 63.7 °F 46.6 °F 54% 30.00 in 10.0 mi SSW 12.7 mph - N/A   Clear
4:14 AM 63.5 °F 46.6 °F 54% 30.00 in 10.0 mi South 11.5 mph - N/A   Clear
4:54 AM 62.6 °F 46.4 °F 55% 30.01 in 10.0 mi SSW 15.0 mph - N/A   Clear
5:14 AM 63.1 °F 46.0 °F 54% 30.01 in 10.0 mi SSW 13.8 mph - N/A   Clear
5:33 AM 64.4 °F 45.9 °F 51% 30.01 in 10.0 mi SSW 17.3 mph 23.0 mph N/A   Clear
5:54 AM 63.9 °F 45.9 °F 52% 30.01 in 10.0 mi SSW 17.3 mph 23.0 mph N/A   Clear
6:14 AM 63.5 °F 46.0 °F 53% 30.01 in 10.0 mi SSW 15.0 mph - N/A   Clear
6:34 AM 63.1 °F 45.9 °F 53% 30.01 in 10.0 mi SSW 12.7 mph - N/A   Clear
6:54 AM 63.5 °F 45.9 °F 53% 30.00 in 10.0 mi SSW 16.1 mph - N/A   Clear
7:13 AM 63.0 °F 45.7 °F 53% 30.01 in 10.0 mi SSW 12.7 mph - N/A   Clear
7:34 AM 62.2 °F 45.5 °F 54% 30.01 in 10.0 mi SSW 15.0 mph - N/A   Clear
8:14 AM 61.3 °F 45.1 °F 55% 30.01 in 10.0 mi SSW 15.0 mph 20.7 mph N/A   Clear
8:34 AM 62.4 °F 45.0 °F 53% 30.02 in 10.0 mi SSW 15.0 mph - N/A   Clear
9:14 AM 66.0 °F 45.0 °F 47% 30.02 in 10.0 mi SSW 16.1 mph - N/A   Clear
9:34 AM 67.1 °F 45.0 °F 45% 30.02 in 10.0 mi SSW 16.1 mph 20.7 mph N/A   Clear
9:53 AM 69.3 °F 44.8 °F 41% 30.02 in 10.0 mi SSW 15.0 mph 23.0 mph N/A   Clear
10:14 AM 71.2 °F 44.2 °F 38% 30.02 in 10.0 mi SSW 18.4 mph - N/A   Clear
10:34 AM 73.4 °F 43.2 °F 34% 30.03 in 10.0 mi SSW 17.3 mph 24.2 mph N/A   Clear
10:53 AM 74.8 °F 42.8 °F 32% 30.03 in 10.0 mi SSW 18.4 mph 23.0 mph N/A   Clear
11:14 AM 76.8 °F 42.4 °F 29% 30.03 in 10.0 mi SSW 15.0 mph 21.9 mph N/A   Clear
11:34 AM 78.3 °F 42.1 °F 27% 30.03 in 10.0 mi SSW 13.8 mph 18.4 mph N/A   Clear
11:54 AM 79.7 °F 42.3 °F 26% 30.03 in 10.0 mi SSW 13.8 mph 19.6 mph N/A   Clear
12:14 PM 81.1 °F 41.9 °F 25% 30.02 in 10.0 mi SSW 11.5 mph 18.4 mph N/A   Clear
12:34 PM 81.5 °F 41.2 °F 24% 30.02 in 10.0 mi South 13.8 mph 19.6 mph N/A   Clear
12:54 PM 82.8 °F 41.2 °F 23% 30.01 in 10.0 mi South 13.8 mph 18.4 mph N/A   Clear
1:14 PM 83.5 °F 41.4 °F 23% 30.01 in 10.0 mi SSW 13.8 mph 19.6 mph N/A   Clear
1:34 PM 84.0 °F 41.7 °F 22% 30.00 in 10.0 mi South 13.8 mph 21.9 mph N/A   Clear
1:54 PM 84.4 °F 41.7 °F 22% 29.99 in 10.0 mi South 13.8 mph 24.2 mph N/A   Clear
2:34 PM 84.4 °F 40.5 °F 21% 29.98 in 10.0 mi South 19.6 mph 27.6 mph N/A   Clear
2:54 PM 84.9 °F 40.5 °F 21% 29.97 in 10.0 mi South 12.7 mph 25.3 mph N/A   Clear
3:13 PM 84.9 °F 40.3 °F 21% 29.97 in 10.0 mi South 18.4 mph 26.5 mph N/A   Clear
3:34 PM 85.1 °F 39.2 °F 20% 29.96 in 10.0 mi South 17.3 mph 21.9 mph N/A   Clear
4:14 PM 84.4 °F 38.7 °F 20% 29.96 in 10.0 mi South 19.6 mph - N/A   Clear
4:33 PM 84.2 °F 37.9 °F 19% 29.96 in 10.0 mi South 16.1 mph 27.6 mph N/A   Clear
4:54 PM 83.5 °F 38.5 °F 20% 29.95 in 10.0 mi SSE 19.6 mph 24.2 mph N/A   Clear
5:14 PM 82.8 °F 37.2 °F 20% 29.95 in 10.0 mi South 15.0 mph 28.8 mph N/A   Clear
5:34 PM 82.0 °F 37.2 °F 20% 29.95 in 10.0 mi SSE 12.7 mph 23.0 mph N/A   Clear
5:54 PM 81.5 °F 36.1 °F 20% 29.95 in 10.0 mi South 13.8 mph 23.0 mph N/A   Clear
6:14 PM 79.9 °F 35.6 °F 20% 29.94 in 10.0 mi SSE 12.7 mph 19.6 mph N/A   Clear
6:34 PM 77.7 °F 36.5 °F 23% 29.95 in 10.0 mi SSE 10.4 mph - N/A   Clear
6:54 PM 75.2 °F 36.5 °F 25% 29.95 in 10.0 mi SSE 8.1 mph - N/A   Clear
7:14 PM 72.3 °F 35.1 °F 26% 29.95 in 10.0 mi SSE 6.9 mph - N/A   Clear
7:34 PM 70.0 °F 35.2 °F 28% 29.96 in 10.0 mi SSE 9.2 mph - N/A   Clear
8:14 PM 68.2 °F 35.2 °F 30% 29.96 in 10.0 mi SSE 8.1 mph - N/A   Clear
8:34 PM 67.1 °F 35.1 °F 31% 29.97 in 10.0 mi SSE 8.1 mph - N/A   Clear
8:53 PM 66.6 °F 35.2 °F 31% 29.97 in 10.0 mi South 8.1 mph - N/A   Clear
9:14 PM 65.5 °F 35.6 °F 33% 29.98 in 10.0 mi SSE 8.1 mph - N/A   Clear
9:34 PM 64.4 °F 35.6 °F 34% 29.98 in 10.0 mi SSE 6.9 mph - N/A   Clear
9:53 PM 63.5 °F 35.8 °F 36% 29.98 in 10.0 mi SSE 8.1 mph - N/A   Clear
10:14 PM 63.5 °F 36.5 °F 37% 29.98 in 10.0 mi SSE 9.2 mph - N/A   Clear
10:34 PM 62.4 °F 36.7 °F 38% 29.99 in 10.0 mi SSE 9.2 mph - N/A   Clear
10:54 PM 61.9 °F 37.0 °F 40% 29.99 in 10.0 mi South 10.4 mph - N/A   Clear
11:14 PM 62.6 °F 37.0 °F 39% 29.99 in 10.0 mi South 10.4 mph - N/A   Clear
11:34 PM 62.2 °F 37.4 °F 40% 29.99 in 10.0 mi South 8.1 mph - N/A   Clear
11:54 PM 62.1 °F 37.4 °F 40% 29.98 in 10.0 mi South 9.2 mph - N/A   Clear